SCP
0 0 0 0 0 0 0 0 0 0 0 0 0 0 0 0 0 0 0 0 0 0 0 0 0 0 0 0 0 0 0 0 0 0 0 0 0 0 0 0 0 0 0 0 -0
0 0 0 0 0 0 0 0 0 0 0 0 0 0 0 0 0 0 0 0 0 0 0 0 0 0 0 0 0 0 0 0 0 0 0 0 0 0 0 0 0 0 0 0 0
0 0 0 0 0 0 0 0 0 0 0 0 0 0 0 0 0 0 0 0 0 0 0 0 0 0 0 0 0 0 0 0 0 0 0 0 0 0 0 0 0 0 0 0 0
0 0 0 0 0 0 0 0 0 0 0 0 0 0 0 0 0 0 0 0 0 0 0 0 0 0 0 0 0 0 0 0 0 0 0 0 0 0 0 0 0 0 0 0 0
0 0 0 0 0 0 0 0 0 0 0 0 0 0 0 0 0 0 0 0 0 0 0 0 0 0 0 0 0 0 0 0 0 0 0 0 0 0 0 0 0 0 0 0 0
0 0 0 0 0 0 0 0 0 0 0 0 1 0 0 0 0 0 0 0 0 0 0 0 0 0 0 0 0 0 0 0 0 0 0 0 0 0 0 0 0 0 0 0 0
0 0 0 0 0 0 0 0 0 0 0 0 1 0 0 0 0 0 0 0 0 0 0 0 0 0 0 0 0 0 0 0 0 0 0 0 0 0 0 0 0 0 0 0 0
0 0 0 0 0 0 0 0 0 0 0 0 1 0 0 0 0 0 0 0 0 0 0 0 0 0 0 0 0 0 0 0 0 0 0 0 0 0 0 0 0 0 0 0 0
-0 -0 0 0 0 0 0 0 0 0 1 0 0 0 0 0 0 0 0 0 0 0 0 0 0 0 0 0 0 0 0 0 0 0 0 0 0 -0 0 0 0 0 0 0 0
-0 0 0 0 0 0 0 0 0 0 0 0 0 0 0 0 0 0 0 0 0 0 0 0 0 0 0 0 0 0 0 0 0 0 0 0 0 0 0 0 0 0 0 0 0
0 0 -0 0 0 0 1 0 0 0 0 0 0 0 0 0 0 0 0 1 0 0 0 0 0 0 0 0 0 0 0 0 0 0 0 0 0 0 0 0 0 0 0 0 0
0 0 -0 0 0 0 0 0 0 0 0 0 0 0 0 0 0 0 0 0 0 0 0 0 0 0 0 0 0 0 0 0 0 0 0 0 0 0 0 0 0 0 0 0 0
0 0 0 0 1 0 0 0 0 0 0 0 0 0 0 0 0 0 0 0 0 0 0 0 0 0 0 0 0 0 0 0 0 0 0 0 -0 -0 0 0 0 0 0 0 0
0 0 0 0 0 0 0 0 0 0 0 0 0 0 0 0 0 0 0 0 0 0 0 0 0 0 0 0 0 0 0 0 0 0 0 0 -0 -0 0 0 0 0 0 0 0
0 0 0 0 0 0 0 0 0 0 0 0 0 0 0 0 0 0 0 0 0 0 0 0 0 0 0 0 0 0 0 0 0 0 0 0 0 -0 0 0 0 0 0 0 -0
0 0 0 0 0 0 0 0 0 0 0 0 0 0 0 0 0 0 0 0 0 0 0 0 0 0 0 0 0 0 0 0 0 0 0 0 0 -0 0 0 0 0 0 0 0
0 0 0 -0 0 0 0 0 0 0 0 0 0 0 0 0 0 0 0 0 0 0 0 0 0 0 0 0 0 0 0 0 0 0 0 0 0 -0 0 0 0 0 0 0 0
0 0 0 0 0 0 0 0 0 0 0 0 0 0 0 0 0 0 0 0 0 0 0 0 0 0 0 0 0 0 0 0 0 0 0 0 0 0 -0 0 0 0 0 0 0
0 0 0 0 0 0 0 0 0 0 0 0 0 0 0 0 0 0 0 0 0 0 0 0 0 0 0 0 0 0 0 0 0 0 0 0 0 0 0 0 -0 0 0 0 0
0 0 0 0 0 0 0 0 0 0 0 0 0 0 0 0 0 0 0 0 0 0 0 0 0 0 0 0 0 0 0 0 0 0 0 0 0 -0 0 0 0 0 0 0 0
1 0 0 0 0 0 0 0 0 0 0 0 0 0 0 0 0 0 0 0 0 0 0 0 0 0 0 0 0 0 0 0 0 0 0 0 0 0 0 0 0 0 0 0 0
0 0 0 0 0 0 0 0 0 0 0 0 0 0 0 0 0 0 0 0 0 0 0 0 0 0 0 0 0 0 0 0 0 0 0 0 -0 -0 -0 0 0 0 0 0 0
0 0 0 0 0 0 0 0 0 0 0 0 0 0 0 0 0 0 0 0 0 0 0 0 0 0 0 0 0 0 0 0 0 0 0 0 -0 0 0 0 0 0 0 0 0
0 0 0 0 0 0 0 0 0 0 0 0 0 0 0 0 0 0 0 0 0 0 0 0 0 0 0 0 0 0 0 0 0 0 0 0 0 0 0 0 0 0 0 0 0
0 0 0 0 0 0 0 0 0 0 0 0 0 0 0 0 0 0 0 0 0 0 0 0 0 0 0 0 0 0 0 0 0 0 0 0 0 0 0 0 0 0 0 0 0
0 0 0 0 0 0 0 0 0 0 0 0 0 0 0 0 0 0 0 0 0 0 0 0 0 0 0 0 0 0 -0 0 0 0 0 0 0 0 0 0 0 0 0 0 0
0 0 0 0 0 0 0 0 0 0 0 0 0 0 0 0 0 0 0 0 0 0 0 -0 0 0 0 0 0 0 -0 0 0 0 0 0 0 0 0 0 0 0 -0 -0 0
Wind_Speed_500mb
67 61 63 71 64 59 58 60 57 59 61 60 52 49 48 48 52 54 61 46 41 24 24 26 23 22 9 8 14 20 7 6 5 7 8 5 7 11 10 15 15 17 9 7 43
79 73 67 63 77 66 60 58 59 59 58 61 55 50 46 50 52 65 67 49 40 45 28 24 23 16 10 6 6 9 8 9 8 5 8 7 8 23 11 17 14 17 18 16 49
85 81 76 69 64 76 64 57 59 57 59 56 59 50 48 48 44 74 67 58 53 39 37 26 23 18 13 6 2 7 13 10 7 10 14 15 6 16 15 6 25 32 29 26 55
90 87 83 76 72 67 76 64 59 58 57 56 58 52 49 44 22 26 58 65 59 50 43 35 24 14 9 9 11 7 10 23 8 13 21 20 16 6 24 14 22 30 27 36 55
94 92 88 84 79 74 75 78 61 59 56 56 56 53 50 46 61 5 7 53 63 57 51 44 34 20 9 12 15 7 6 17 22 22 27 26 32 15 19 32 14 23 35 41 49
96 98 96 90 83 77 75 84 69 59 54 55 56 54 56 51 61 54 1 28 66 66 54 46 28 34 15 14 16 15 17 21 21 29 19 15 16 10 12 25 26 24 39 45 45
86 96 106 97 87 80 76 76 72 64 53 53 56 54 55 71 20 69 62 19 62 68 67 58 28 39 17 7 19 11 7 5 20 22 13 13 16 20 32 13 22 30 43 46 50
96 87 112 99 92 84 79 78 71 64 54 49 53 52 50 68 31 21 63 48 28 66 63 59 52 21 8 5 9 12 6 8 10 27 17 20 17 15 27 30 31 35 45 51 57
93 95 72 109 98 87 83 79 71 61 51 45 50 49 36 52 60 61 40 73 33 47 58 31 44 25 15 9 2 7 9 11 5 31 7 15 12 23 36 35 47 43 49 55 58
84 94 99 85 107 94 85 77 65 55 47 39 42 26 50 91 66 66 59 51 50 35 40 41 25 12 9 14 36 15 11 9 17 10 11 11 24 25 11 30 48 51 55 58 65
77 83 102 81 116 99 89 72 53 29 65 48 31 36 12 45 51 65 76 49 47 40 30 52 25 37 50 52 5 13 5 23 9 8 5 17 30 34 41 29 31 38 55 62 73
76 73 88 91 114 102 101 96 95 44 44 47 6 76 10 42 35 49 66 44 34 33 26 19 49 49 33 31 29 13 16 16 6 9 12 13 35 30 27 27 54 61 64 66 73
78 80 85 97 116 118 108 117 87 43 18 52 29 47 26 37 23 55 60 52 12 25 40 37 28 38 31 27 34 36 33 14 8 6 9 10 21 27 19 45 58 64 67 68 66
84 81 82 92 103 123 118 108 90 58 9 12 28 13 37 27 10 33 62 42 12 23 29 29 48 23 43 51 33 40 26 14 15 9 14 9 18 20 19 30 29 59 75 81 76
94 86 82 95 99 116 121 112 91 45 18 24 27 21 48 35 29 20 50 46 30 26 12 22 5 40 35 43 28 27 21 21 14 13 5 10 10 12 15 19 18 36 73 85 90
93 95 89 85 86 113 104 115 73 16 19 17 31 30 25 31 10 23 20 27 8 7 8 24 5 1 41 35 31 10 21 10 6 18 19 29 23 12 17 21 13 32 72 78 79
91 94 103 99 100 114 117 99 20 25 3 20 30 39 44 27 25 13 26 27 24 23 25 25 38 20 2 12 13 21 26 11 14 10 22 22 23 44 14 13 21 31 65 74 77
96 103 104 108 118 121 120 34 28 15 20 11 25 43 34 28 27 20 27 24 27 9 9 24 19 30 26 19 13 56 25 6 18 13 18 11 23 14 25 55 70 65 63 50 50
93 103 100 108 127 135 98 38 18 24 19 33 41 46 26 27 14 23 32 41 31 31 23 21 28 6 17 26 30 13 26 15 10 6 6 11 17 18 19 21 34 51 65 57 53
94 91 102 114 140 125 43 35 8 16 19 36 22 33 33 45 21 34 31 34 30 48 9 5 7 12 10 16 34 32 19 21 7 10 8 12 14 22 24 38 29 26 49 73 58
102 57 82 131 131 98 39 14 11 20 42 18 11 16 18 29 37 23 28 8 45 36 35 6 3 4 10 27 39 20 19 14 11 9 12 7 17 15 28 23 22 29 52 65 70
95 9 117 144 33 27 35 19 24 14 11 11 12 13 19 37 24 17 19 11 45 33 35 17 6 20 21 6 7 36 37 41 13 9 8 1 28 9 17 13 7 30 45 39 62
86 27 134 145 26 28 16 9 15 19 11 11 11 8 9 23 19 18 15 10 19 36 34 24 13 7 6 13 19 11 38 48 30 2 22 15 25 8 8 11 20 41 60 50 40
60 24 69 80 30 32 42 28 27 13 9 10 15 24 18 28 6 27 17 9 18 38 31 42 7 21 34 18 12 18 37 50 47 29 26 37 67 27 12 12 11 22 34 37 42
52 21 21 18 22 29 23 33 45 19 6 15 9 18 20 16 8 12 12 10 4 19 30 17 17 21 38 32 11 24 26 41 57 60 50 66 63 54 19 12 17 22 20 26 34
20 17 24 9 51 45 36 29 44 12 9 10 20 17 11 13 14 15 16 11 9 11 8 1 3 16 42 43 29 28 27 22 45 49 48 58 53 21 47 42 20 28 33 36 41
65 53 56 37 33 33 11 30 26 19 24 10 37 16 11 13 28 31 29 28 25 22 13 13 3 5 11 37 39 45 50 41 36 53 53 52 73 11 13 19 38 36 41 49 50
Wind_Direction_500mb
240 236 238 243 239 243 246 238 229 229 226 223 222 224 224 225 230 230 230 227 224 224 226 234 241 256 284 244 149 124 76 283 257 149 256 189 186 165 187 164 178 201 241 237 181
240 237 235 236 237 237 240 241 234 227 227 221 219 221 222 222 233 236 232 225 226 229 231 221 235 245 212 252 271 125 134 221 336 346 310 278 198 171 167 172 212 219 222 225 185
242 236 234 233 233 233 236 238 236 229 225 220 217 217 220 220 235 244 233 224 222 226 225 218 217 205 184 184 352 306 170 143 266 339 305 301 257 183 159 232 219 215 205 197 186
241 239 235 231 230 229 234 236 235 231 225 219 213 211 218 214 227 259 244 223 218 221 221 214 203 183 150 165 163 260 232 150 263 333 339 312 321 247 200 216 243 237 223 198 194
239 239 235 232 228 229 227 231 234 229 224 219 209 206 212 211 224 230 231 207 219 213 217 208 190 181 187 171 155 200 216 211 218 295 319 307 279 268 249 226 261 225 210 209 207
238 237 236 232 227 228 227 226 228 226 223 216 209 205 213 228 222 218 175 214 207 210 211 206 205 197 217 198 188 213 208 252 240 258 279 286 281 229 250 233 239 218 211 212 218
231 236 232 231 227 223 221 222 222 221 219 214 205 206 217 223 245 231 235 276 214 210 212 210 189 192 205 151 215 216 159 280 238 224 240 319 268 221 241 244 227 218 213 215 219
242 242 222 228 225 221 219 219 218 217 214 212 203 209 227 224 205 216 219 225 211 213 218 220 207 209 208 207 157 148 143 209 250 183 215 144 269 289 242 237 238 231 221 220 223
240 243 245 227 224 216 217 215 213 211 207 202 198 205 227 230 223 214 217 219 220 211 213 213 206 210 197 140 176 226 199 208 288 206 145 176 261 276 250 231 233 232 231 226 227
242 241 237 222 221 211 211 208 206 202 196 189 201 190 232 222 215 215 216 219 214 210 202 207 180 192 167 194 214 189 194 205 215 214 234 212 222 250 247 219 230 236 236 236 236
234 240 237 237 205 208 201 193 178 185 187 188 200 189 7 204 199 212 218 217 203 210 205 189 200 205 205 213 219 150 198 226 174 207 178 233 246 240 228 229 243 245 245 241 242
233 234 238 236 212 210 198 185 187 193 187 193 243 205 187 181 181 208 204 199 198 214 204 228 211 214 217 214 225 230 213 231 273 200 183 257 252 251 246 229 242 246 249 249 246
237 230 228 228 203 200 190 197 181 175 155 208 210 200 182 183 198 195 195 204 188 204 213 224 229 222 207 209 219 229 224 201 225 136 213 317 264 259 251 239 245 251 256 255 253
232 225 230 216 208 188 189 191 179 164 125 185 204 225 190 182 193 201 200 198 211 216 228 229 230 217 223 215 205 219 202 198 199 177 246 155 273 247 230 232 225 236 247 252 249
229 227 229 213 202 186 184 182 171 161 206 169 177 189 185 176 140 188 193 190 201 201 169 217 266 220 242 223 196 227 188 187 177 203 206 222 268 253 194 230 240 223 239 245 248
231 226 225 220 203 187 179 171 164 150 208 163 150 167 151 194 157 147 172 188 163 119 259 249 357 266 223 241 204 150 186 149 155 205 234 219 215 226 220 214 234 227 241 242 243
225 221 221 217 181 178 171 160 169 196 116 152 170 162 173 179 179 162 173 182 187 189 222 223 238 220 231 215 198 211 180 191 197 206 234 189 211 245 249 244 229 230 240 245 242
228 222 221 210 184 172 162 166 193 126 165 182 161 167 175 148 196 170 171 195 209 214 217 215 227 183 193 218 221 205 195 193 194 183 227 136 230 238 228 240 249 252 255 257 247
217 219 220 217 170 169 162 184 175 159 164 157 150 167 177 164 157 166 190 200 202 199 191 189 236 132 182 195 213 199 207 173 103 352 76 199 274 304 274 273 260 257 253 249 243
197 188 195 172 169 164 173 170 140 141 133 139 145 180 170 174 159 182 178 200 202 203 124 260 279 190 214 205 225 224 190 194 179 169 232 244 260 235 208 224 241 237 234 242 244
182 177 194 169 163 165 178 155 131 160 129 148 134 130 177 177 185 180 186 202 199 198 188 121 144 286 133 200 210 210 212 223 195 170 202 230 249 198 203 222 225 244 246 244 234
172 192 180 165 158 170 173 152 130 131 110 108 96 88 147 168 175 176 179 185 193 145 188 187 181 248 233 249 300 227 224 214 227 203 231 249 257 200 216 235 325 279 266 264 247
184 177 162 158 165 165 129 124 121 138 144 133 114 123 123 155 180 175 168 168 164 173 181 175 203 227 281 243 225 242 238 225 206 230 210 209 248 190 253 267 242 255 254 265 251
156 151 149 159 165 145 129 143 138 116 82 93 109 121 109 157 20 180 174 206 169 192 182 169 205 216 228 236 163 215 230 226 210 218 226 224 249 229 205 234 275 249 248 254 235
140 136 123 148 139 134 132 149 147 140 90 132 68 155 142 147 114 145 156 135 143 207 200 174 231 211 243 257 205 210 216 230 217 218 217 233 230 238 249 238 237 236 216 219 207
120 139 98 108 140 134 137 159 148 109 125 131 130 149 128 137 158 153 139 158 160 126 147 121 301 242 245 237 235 240 226 237 267 223 229 248 258 236 224 245 238 213 194 198 205
131 128 133 144 151 140 171 152 141 122 38 110 134 114 90 160 147 169 171 166 165 155 156 156 101 324 294 250 237 242 236 227 237 254 227 235 238 161 207 219 231 233 218 208 205
Wind_Speed_850mb
67 61 63 71 64 59 58 60 57 59 61 60 52 49 48 48 52 54 61 46 41 24 24 26 23 22 9 8 14 20 7 6 5 7 8 5 7 11 10 15 15 17 9 7 43
79 73 67 63 77 66 60 58 59 59 58 61 55 50 46 50 52 65 67 49 40 45 28 24 23 16 10 6 6 9 8 9 8 5 8 7 8 23 11 17 14 17 18 16 49
85 81 76 69 64 76 64 57 59 57 59 56 59 50 48 48 44 74 67 58 53 39 37 26 23 18 13 6 2 7 13 10 7 10 14 15 6 16 15 6 25 32 29 26 55
90 87 83 76 72 67 76 64 59 58 57 56 58 52 49 44 22 26 58 65 59 50 43 35 24 14 9 9 11 7 10 23 8 13 21 20 16 6 24 14 22 30 27 36 55
94 92 88 84 79 74 75 78 61 59 56 56 56 53 50 46 61 5 7 53 63 57 51 44 34 20 9 12 15 7 6 17 22 22 27 26 32 15 19 32 14 23 35 41 49
96 98 96 90 83 77 75 84 69 59 54 55 56 54 56 51 61 54 1 28 66 66 54 46 28 34 15 14 16 15 17 21 21 29 19 15 16 10 12 25 26 24 39 45 45
86 96 106 97 87 80 76 76 72 64 53 53 56 54 55 71 20 69 62 19 62 68 67 58 28 39 17 7 19 11 7 5 20 22 13 13 16 20 32 13 22 30 43 46 50
96 87 112 99 92 84 79 78 71 64 54 49 53 52 50 68 31 21 63 48 28 66 63 59 52 21 8 5 9 12 6 8 10 27 17 20 17 15 27 30 31 35 45 51 57
93 95 72 109 98 87 83 79 71 61 51 45 50 49 36 52 60 61 40 73 33 47 58 31 44 25 15 9 2 7 9 11 5 31 7 15 12 23 36 35 47 43 49 55 58
84 94 99 85 107 94 85 77 65 55 47 39 42 26 50 91 66 66 59 51 50 35 40 41 25 12 9 14 36 15 11 9 17 10 11 11 24 25 11 30 48 51 55 58 65
77 83 102 81 116 99 89 72 53 29 65 48 31 36 12 45 51 65 76 49 47 40 30 52 25 37 50 52 5 13 5 23 9 8 5 17 30 34 41 29 31 38 55 62 73
76 73 88 91 114 102 101 96 95 44 44 47 6 76 10 42 35 49 66 44 34 33 26 19 49 49 33 31 29 13 16 16 6 9 12 13 35 30 27 27 54 61 64 66 73
78 80 85 97 116 118 108 117 87 43 18 52 29 47 26 37 23 55 60 52 12 25 40 37 28 38 31 27 34 36 33 14 8 6 9 10 21 27 19 45 58 64 67 68 66
84 81 82 92 103 123 118 108 90 58 9 12 28 13 37 27 10 33 62 42 12 23 29 29 48 23 43 51 33 40 26 14 15 9 14 9 18 20 19 30 29 59 75 81 76
94 86 82 95 99 116 121 112 91 45 18 24 27 21 48 35 29 20 50 46 30 26 12 22 5 40 35 43 28 27 21 21 14 13 5 10 10 12 15 19 18 36 73 85 90
93 95 89 85 86 113 104 115 73 16 19 17 31 30 25 31 10 23 20 27 8 7 8 24 5 1 41 35 31 10 21 10 6 18 19 29 23 12 17 21 13 32 72 78 79
91 94 103 99 100 114 117 99 20 25 3 20 30 39 44 27 25 13 26 27 24 23 25 25 38 20 2 12 13 21 26 11 14 10 22 22 23 44 14 13 21 31 65 74 77
96 103 104 108 118 121 120 34 28 15 20 11 25 43 34 28 27 20 27 24 27 9 9 24 19 30 26 19 13 56 25 6 18 13 18 11 23 14 25 55 70 65 63 50 50
93 103 100 108 127 135 98 38 18 24 19 33 41 46 26 27 14 23 32 41 31 31 23 21 28 6 17 26 30 13 26 15 10 6 6 11 17 18 19 21 34 51 65 57 53
94 91 102 114 140 125 43 35 8 16 19 36 22 33 33 45 21 34 31 34 30 48 9 5 7 12 10 16 34 32 19 21 7 10 8 12 14 22 24 38 29 26 49 73 58
102 57 82 131 131 98 39 14 11 20 42 18 11 16 18 29 37 23 28 8 45 36 35 6 3 4 10 27 39 20 19 14 11 9 12 7 17 15 28 23 22 29 52 65 70
95 9 117 144 33 27 35 19 24 14 11 11 12 13 19 37 24 17 19 11 45 33 35 17 6 20 21 6 7 36 37 41 13 9 8 1 28 9 17 13 7 30 45 39 62
86 27 134 145 26 28 16 9 15 19 11 11 11 8 9 23 19 18 15 10 19 36 34 24 13 7 6 13 19 11 38 48 30 2 22 15 25 8 8 11 20 41 60 50 40
60 24 69 80 30 32 42 28 27 13 9 10 15 24 18 28 6 27 17 9 18 38 31 42 7 21 34 18 12 18 37 50 47 29 26 37 67 27 12 12 11 22 34 37 42
52 21 21 18 22 29 23 33 45 19 6 15 9 18 20 16 8 12 12 10 4 19 30 17 17 21 38 32 11 24 26 41 57 60 50 66 63 54 19 12 17 22 20 26 34
20 17 24 9 51 45 36 29 44 12 9 10 20 17 11 13 14 15 16 11 9 11 8 1 3 16 42 43 29 28 27 22 45 49 48 58 53 21 47 42 20 28 33 36 41
65 53 56 37 33 33 11 30 26 19 24 10 37 16 11 13 28 31 29 28 25 22 13 13 3 5 11 37 39 45 50 41 36 53 53 52 73 11 13 19 38 36 41 49 50
Wind_Direction_850mb
240 236 238 243 239 243 246 238 229 229 226 223 222 224 224 225 230 230 230 227 224 224 226 234 241 256 284 244 149 124 76 283 257 149 256 189 186 165 187 164 178 201 241 237 181
240 237 235 236 237 237 240 241 234 227 227 221 219 221 222 222 233 236 232 225 226 229 231 221 235 245 212 252 271 125 134 221 336 346 310 278 198 171 167 172 212 219 222 225 185
242 236 234 233 233 233 236 238 236 229 225 220 217 217 220 220 235 244 233 224 222 226 225 218 217 205 184 184 352 306 170 143 266 339 305 301 257 183 159 232 219 215 205 197 186
241 239 235 231 230 229 234 236 235 231 225 219 213 211 218 214 227 259 244 223 218 221 221 214 203 183 150 165 163 260 232 150 263 333 339 312 321 247 200 216 243 237 223 198 194
239 239 235 232 228 229 227 231 234 229 224 219 209 206 212 211 224 230 231 207 219 213 217 208 190 181 187 171 155 200 216 211 218 295 319 307 279 268 249 226 261 225 210 209 207
238 237 236 232 227 228 227 226 228 226 223 216 209 205 213 228 222 218 175 214 207 210 211 206 205 197 217 198 188 213 208 252 240 258 279 286 281 229 250 233 239 218 211 212 218
231 236 232 231 227 223 221 222 222 221 219 214 205 206 217 223 245 231 235 276 214 210 212 210 189 192 205 151 215 216 159 280 238 224 240 319 268 221 241 244 227 218 213 215 219
242 242 222 228 225 221 219 219 218 217 214 212 203 209 227 224 205 216 219 225 211 213 218 220 207 209 208 207 157 148 143 209 250 183 215 144 269 289 242 237 238 231 221 220 223
240 243 245 227 224 216 217 215 213 211 207 202 198 205 227 230 223 214 217 219 220 211 213 213 206 210 197 140 176 226 199 208 288 206 145 176 261 276 250 231 233 232 231 226 227
242 241 237 222 221 211 211 208 206 202 196 189 201 190 232 222 215 215 216 219 214 210 202 207 180 192 167 194 214 189 194 205 215 214 234 212 222 250 247 219 230 236 236 236 236
234 240 237 237 205 208 201 193 178 185 187 188 200 189 7 204 199 212 218 217 203 210 205 189 200 205 205 213 219 150 198 226 174 207 178 233 246 240 228 229 243 245 245 241 242
233 234 238 236 212 210 198 185 187 193 187 193 243 205 187 181 181 208 204 199 198 214 204 228 211 214 217 214 225 230 213 231 273 200 183 257 252 251 246 229 242 246 249 249 246
237 230 228 228 203 200 190 197 181 175 155 208 210 200 182 183 198 195 195 204 188 204 213 224 229 222 207 209 219 229 224 201 225 136 213 317 264 259 251 239 245 251 256 255 253
232 225 230 216 208 188 189 191 179 164 125 185 204 225 190 182 193 201 200 198 211 216 228 229 230 217 223 215 205 219 202 198 199 177 246 155 273 247 230 232 225 236 247 252 249
229 227 229 213 202 186 184 182 171 161 206 169 177 189 185 176 140 188 193 190 201 201 169 217 266 220 242 223 196 227 188 187 177 203 206 222 268 253 194 230 240 223 239 245 248
231 226 225 220 203 187 179 171 164 150 208 163 150 167 151 194 157 147 172 188 163 119 259 249 357 266 223 241 204 150 186 149 155 205 234 219 215 226 220 214 234 227 241 242 243
225 221 221 217 181 178 171 160 169 196 116 152 170 162 173 179 179 162 173 182 187 189 222 223 238 220 231 215 198 211 180 191 197 206 234 189 211 245 249 244 229 230 240 245 242
228 222 221 210 184 172 162 166 193 126 165 182 161 167 175 148 196 170 171 195 209 214 217 215 227 183 193 218 221 205 195 193 194 183 227 136 230 238 228 240 249 252 255 257 247
217 219 220 217 170 169 162 184 175 159 164 157 150 167 177 164 157 166 190 200 202 199 191 189 236 132 182 195 213 199 207 173 103 352 76 199 274 304 274 273 260 257 253 249 243
197 188 195 172 169 164 173 170 140 141 133 139 145 180 170 174 159 182 178 200 202 203 124 260 279 190 214 205 225 224 190 194 179 169 232 244 260 235 208 224 241 237 234 242 244
182 177 194 169 163 165 178 155 131 160 129 148 134 130 177 177 185 180 186 202 199 198 188 121 144 286 133 200 210 210 212 223 195 170 202 230 249 198 203 222 225 244 246 244 234
172 192 180 165 158 170 173 152 130 131 110 108 96 88 147 168 175 176 179 185 193 145 188 187 181 248 233 249 300 227 224 214 227 203 231 249 257 200 216 235 325 279 266 264 247
184 177 162 158 165 165 129 124 121 138 144 133 114 123 123 155 180 175 168 168 164 173 181 175 203 227 281 243 225 242 238 225 206 230 210 209 248 190 253 267 242 255 254 265 251
156 151 149 159 165 145 129 143 138 116 82 93 109 121 109 157 20 180 174 206 169 192 182 169 205 216 228 236 163 215 230 226 210 218 226 224 249 229 205 234 275 249 248 254 235
140 136 123 148 139 134 132 149 147 140 90 132 68 155 142 147 114 145 156 135 143 207 200 174 231 211 243 257 205 210 216 230 217 218 217 233 230 238 249 238 237 236 216 219 207
120 139 98 108 140 134 137 159 148 109 125 131 130 149 128 137 158 153 139 158 160 126 147 121 301 242 245 237 235 240 226 237 267 223 229 248 258 236 224 245 238 213 194 198 205
131 128 133 144 151 140 171 152 141 122 38 110 134 114 90 160 147 169 171 166 165 155 156 156 101 324 294 250 237 242 236 227 237 254 227 235 238 161 207 219 231 233 218 208 205